TimeCDT,TemperatureF,Dew PointF,Humidity,Sea Level PressureIn,VisibilityMPH,Wind Direction,Wind SpeedMPH,Gust SpeedMPH,PrecipitationIn,Events,Conditions,WindDirDegrees,DateUTC
12:53 AM,82.0,63.0,52,29.79,10.0,South,21.9,31.1,N/A,,Clear,190,2014-06-17 05:53:00
1:53 AM,81.0,63.0,54,29.78,10.0,South,24.2,-,N/A,,Clear,190,2014-06-17 06:53:00
2:53 AM,78.1,64.0,62,29.77,10.0,South,24.2,-,N/A,,Clear,190,2014-06-17 07:53:00
3:53 AM,77.0,64.9,66,29.78,10.0,South,23.0,31.1,N/A,,Clear,190,2014-06-17 08:53:00
4:53 AM,75.9,64.9,69,29.77,10.0,South,25.3,33.4,N/A,,Clear,190,2014-06-17 09:53:00
5:53 AM,75.0,66.0,73,29.78,10.0,South,26.5,33.4,N/A,,Clear,190,2014-06-17 10:53:00
6:53 AM,75.0,66.9,76,29.81,10.0,South,25.3,32.2,N/A,,Clear,190,2014-06-17 11:53:00
7:53 AM,77.0,68.0,74,29.81,10.0,South,31.1,40.3,N/A,,Clear,190,2014-06-17 12:53:00
8:53 AM,79.0,69.1,72,29.82,10.0,SSW,28.8,42.6,N/A,,Clear,200,2014-06-17 13:53:00
9:53 AM,82.9,69.1,63,29.81,10.0,SSW,32.2,39.1,N/A,,Clear,200,2014-06-17 14:53:00
10:53 AM,86.0,69.1,57,29.81,10.0,South,27.6,39.1,N/A,,Clear,190,2014-06-17 15:53:00
11:53 AM,88.0,69.1,53,29.81,10.0,South,26.5,40.3,N/A,,Clear,190,2014-06-17 16:53:00
12:53 PM,90.0,69.1,50,29.82,10.0,South,21.9,28.8,N/A,,Scattered Clouds,190,2014-06-17 17:53:00
1:53 PM,93.0,69.1,45,29.79,10.0,South,24.2,32.2,N/A,,Clear,190,2014-06-17 18:53:00
2:53 PM,93.9,66.9,41,29.78,10.0,South,26.5,32.2,N/A,,Clear,190,2014-06-17 19:53:00
3:53 PM,96.1,68.0,40,29.76,10.0,South,24.2,35.7,N/A,,Partly Cloudy,180,2014-06-17 20:53:00
4:53 PM,95.0,66.0,38,29.75,10.0,South,27.6,33.4,N/A,,Clear,180,2014-06-17 21:53:00
5:53 PM,95.0,66.0,38,29.74,10.0,South,27.6,34.5,N/A,,Clear,170,2014-06-17 22:53:00
6:53 PM,93.0,66.0,41,29.74,10.0,South,26.5,32.2,N/A,,Clear,180,2014-06-17 23:53:00
7:53 PM,91.9,66.0,42,29.74,10.0,South,23.0,29.9,N/A,,Clear,180,2014-06-18 00:53:00
8:53 PM,88.0,66.9,49,29.75,10.0,South,18.4,-,N/A,,Clear,170,2014-06-18 01:53:00
9:53 PM,84.9,66.9,55,29.76,10.0,SSE,16.1,-,N/A,,Clear,160,2014-06-18 02:53:00
10:53 PM,84.0,66.0,55,29.79,10.0,South,23.0,31.1,N/A,,Clear,170,2014-06-18 03:53:00
11:53 PM,82.9,66.0,56,29.80,10.0,South,24.2,34.5,N/A,,Clear,180,2014-06-18 04:53:00